TimeEST,TemperatureF,Dew PointF,Humidity,Sea Level PressureIn,VisibilityMPH,Wind Direction,Wind SpeedMPH,Gust SpeedMPH,PrecipitationIn,Events,Conditions,WindDirDegrees,DateUTC
12:15 AM,44.6,14.0,29,29.95,10.0,SSW,12.7,26.5,N/A,,Clear,210,2013-01-20 05:15:00
12:35 AM,44.6,14.0,29,29.95,10.0,SW,19.6,26.5,N/A,,Clear,220,2013-01-20 05:35:00
12:55 AM,44.6,15.8,31,29.95,10.0,SSW,16.1,24.2,N/A,,Clear,210,2013-01-20 05:55:00
1:15 AM,44.6,15.8,31,29.95,10.0,SW,17.3,24.2,N/A,,Clear,220,2013-01-20 06:15:00
1:35 AM,44.6,17.6,34,29.95,10.0,SSW,17.3,29.9,N/A,,Clear,210,2013-01-20 06:35:00
1:55 AM,44.6,17.6,34,29.95,10.0,SSW,17.3,25.3,N/A,,Clear,210,2013-01-20 06:55:00
2:15 AM,44.6,19.4,37,29.95,10.0,SSW,16.1,24.2,N/A,,Clear,210,2013-01-20 07:15:00
2:35 AM,42.8,19.4,39,29.95,10.0,SSW,16.1,26.5,N/A,,Clear,210,2013-01-20 07:35:00
2:55 AM,42.8,21.2,42,29.95,10.0,SSW,15.0,25.3,N/A,,Clear,210,2013-01-20 07:55:00
3:15 AM,42.8,23.0,46,29.95,10.0,SSW,12.7,23.0,N/A,,Clear,210,2013-01-20 08:15:00
3:35 AM,42.8,23.0,46,29.95,10.0,SW,15.0,23.0,N/A,,Clear,220,2013-01-20 08:35:00
3:55 AM,42.8,23.0,46,29.94,10.0,SW,15.0,24.2,N/A,,Clear,220,2013-01-20 08:55:00
4:15 AM,42.8,26.6,53,29.93,10.0,SW,17.3,27.6,N/A,,Clear,220,2013-01-20 09:15:00
4:35 AM,42.8,26.6,53,29.93,10.0,SW,16.1,28.8,N/A,,Clear,220,2013-01-20 09:35:00
4:55 AM,42.8,26.6,53,29.93,10.0,SW,17.3,26.5,N/A,,Clear,220,2013-01-20 09:55:00
5:15 AM,42.8,28.4,57,29.93,10.0,SW,17.3,26.5,N/A,,Clear,230,2013-01-20 10:15:00
5:35 AM,42.8,28.4,57,29.93,10.0,SW,18.4,24.2,N/A,,Clear,230,2013-01-20 10:35:00
5:55 AM,42.8,28.4,57,29.93,10.0,SW,19.6,25.3,N/A,,Clear,230,2013-01-20 10:55:00
6:15 AM,42.8,28.4,57,29.94,10.0,SW,19.6,26.5,N/A,,Clear,230,2013-01-20 11:15:00
6:35 AM,42.8,28.4,57,29.95,10.0,SW,18.4,26.5,N/A,,Scattered Clouds,230,2013-01-20 11:35:00
6:55 AM,42.8,30.2,61,29.95,10.0,WSW,17.3,24.2,N/A,,Mostly Cloudy,240,2013-01-20 11:55:00
7:15 AM,42.8,30.2,61,29.96,10.0,WSW,18.4,26.5,N/A,,Overcast,250,2013-01-20 12:15:00
7:35 AM,42.8,30.2,61,29.97,10.0,WSW,15.0,25.3,N/A,,Overcast,240,2013-01-20 12:35:00
7:55 AM,41.0,30.2,65,29.96,10.0,SW,19.6,25.3,N/A,,Overcast,230,2013-01-20 12:55:00
8:15 AM,41.0,30.2,65,29.97,10.0,WSW,15.0,26.5,N/A,,Scattered Clouds,240,2013-01-20 13:15:00
8:35 AM,41.0,30.2,65,29.97,10.0,SW,21.9,29.9,N/A,,Scattered Clouds,220,2013-01-20 13:35:00
8:55 AM,42.8,30.2,61,29.98,10.0,SW,20.7,26.5,N/A,,Mostly Cloudy,230,2013-01-20 13:55:00
9:15 AM,42.8,30.2,61,29.98,10.0,SW,18.4,28.8,N/A,,Scattered Clouds,230,2013-01-20 14:15:00
9:35 AM,42.8,30.2,61,29.99,10.0,WSW,17.3,29.9,N/A,,Mostly Cloudy,240,2013-01-20 14:35:00
9:55 AM,42.8,30.2,61,30.01,10.0,West,13.8,32.2,N/A,,Mostly Cloudy,260,2013-01-20 14:55:00
10:15 AM,42.8,28.4,57,30.01,10.0,West,17.3,31.1,N/A,,Mostly Cloudy,270,2013-01-20 15:15:00
10:35 AM,42.8,28.4,57,30.01,10.0,WSW,19.6,28.8,N/A,,Mostly Cloudy,250,2013-01-20 15:35:00
10:55 AM,44.6,30.2,57,30.02,10.0,West,23.0,31.1,N/A,,Mostly Cloudy,260,2013-01-20 15:55:00
11:15 AM,41.0,24.8,53,30.02,10.0,WNW,13.8,24.2,N/A,,Partly Cloudy,290,2013-01-20 16:15:00
11:55 AM,42.8,21.2,42,30.02,10.0,West,20.7,28.8,N/A,,Clear,280,2013-01-20 16:55:00
12:15 PM,42.8,19.4,39,30.01,10.0,WNW,12.7,23.0,N/A,,Clear,290,2013-01-20 17:15:00
12:35 PM,41.0,15.8,36,30.01,10.0,West,19.6,25.3,N/A,,Clear,260,2013-01-20 17:35:00
12:55 PM,41.0,14.0,33,30.02,10.0,WNW,18.4,27.6,N/A,,Clear,290,2013-01-20 17:55:00
1:15 PM,41.0,10.4,29,30.02,10.0,West,19.6,31.1,N/A,,Clear,270,2013-01-20 18:15:00
1:35 PM,41.0,10.4,29,30.02,10.0,WSW,17.3,25.3,N/A,,Clear,250,2013-01-20 18:35:00
1:55 PM,39.2,12.2,33,30.03,10.0,WNW,17.3,23.0,N/A,,Clear,290,2013-01-20 18:55:00
2:15 PM,39.2,8.6,28,30.03,10.0,WNW,9.2,24.2,N/A,,Clear,300,2013-01-20 19:15:00
2:35 PM,39.2,5.0,24,30.04,10.0,West,11.5,21.9,N/A,,Clear,270,2013-01-20 19:35:00
2:55 PM,37.4,5.0,26,30.05,10.0,WNW,15.0,23.0,N/A,,Clear,300,2013-01-20 19:55:00
3:15 PM,37.4,5.0,26,30.05,10.0,WNW,8.1,20.7,N/A,,Clear,300,2013-01-20 20:15:00
3:35 PM,37.4,5.0,26,30.05,10.0,West,13.8,17.3,N/A,,Clear,260,2013-01-20 20:35:00
3:55 PM,37.4,3.2,24,30.06,10.0,WSW,16.1,24.2,N/A,,Clear,250,2013-01-20 20:55:00
4:15 PM,37.4,3.2,24,30.07,10.0,West,10.4,19.6,N/A,,Clear,280,2013-01-20 21:15:00
4:35 PM,35.6,3.2,26,30.07,10.0,WNW,6.9,-,N/A,,Clear,300,2013-01-20 21:35:00
4:55 PM,35.6,5.0,28,30.07,10.0,West,6.9,-,N/A,,Clear,270,2013-01-20 21:55:00
5:15 PM,35.6,5.0,28,30.07,10.0,WNW,9.2,-,N/A,,Clear,290,2013-01-20 22:15:00
5:35 PM,33.8,5.0,30,30.07,10.0,West,9.2,-,N/A,,Clear,270,2013-01-20 22:35:00
5:55 PM,33.8,6.8,32,30.09,10.0,West,6.9,-,N/A,,Clear,280,2013-01-20 22:55:00
6:15 PM,33.8,6.8,32,30.09,10.0,West,6.9,-,N/A,,Clear,270,2013-01-20 23:15:00
6:35 PM,32.0,8.6,38,30.09,10.0,West,6.9,-,N/A,,Clear,270,2013-01-20 23:35:00
6:55 PM,32.0,6.8,35,30.09,10.0,Calm,Calm,-,N/A,,Clear,0,2013-01-20 23:55:00
7:15 PM,32.0,8.6,38,30.10,10.0,WNW,4.6,-,N/A,,Clear,290,2013-01-21 00:15:00
7:35 PM,32.0,8.6,38,30.09,10.0,West,6.9,-,N/A,,Clear,280,2013-01-21 00:35:00
7:55 PM,32.0,6.8,35,30.10,10.0,WNW,5.8,-,N/A,,Clear,290,2013-01-21 00:55:00
8:15 PM,32.0,8.6,38,30.10,10.0,WNW,6.9,-,N/A,,Partly Cloudy,290,2013-01-21 01:15:00
8:35 PM,32.0,8.6,38,30.11,10.0,West,8.1,-,N/A,,Partly Cloudy,280,2013-01-21 01:35:00
8:55 PM,32.0,10.4,41,30.11,10.0,WNW,5.8,-,N/A,,Clear,290,2013-01-21 01:55:00
9:15 PM,30.2,10.4,44,30.10,10.0,NW,3.5,-,N/A,,Partly Cloudy,320,2013-01-21 02:15:00
9:35 PM,30.2,10.4,44,30.10,10.0,WNW,3.5,-,N/A,,Clear,290,2013-01-21 02:35:00
9:55 PM,30.2,10.4,44,30.11,10.0,West,5.8,-,N/A,,Clear,270,2013-01-21 02:55:00
10:15 PM,30.2,10.4,44,30.11,10.0,West,6.9,-,N/A,,Clear,280,2013-01-21 03:15:00
10:55 PM,28.4,10.4,47,30.10,10.0,West,5.8,-,N/A,,Clear,280,2013-01-21 03:55:00
11:15 PM,28.4,12.2,51,30.10,10.0,WNW,4.6,-,N/A,,Clear,290,2013-01-21 04:15:00
11:35 PM,28.4,10.4,47,30.10,10.0,Calm,Calm,-,N/A,,Clear,0,2013-01-21 04:35:00
11:55 PM,28.4,12.2,51,30.10,10.0,West,5.8,-,N/A,,Clear,260,2013-01-21 04:55:00